Regional Weather Roundup
Issued by NWS

Home | Current Version | Previous Version | Graphics & Text | Print | Product List | Glossary On
Versions: 1 2 3 4 5 6 7 8 9 10 11 12 13 14 15 16 17 18 19 20 21 22 23 24 25 26 27 28 29 30 31 32 33 34 35 36 37 38 39 40 41 42 43 44 45 46 47 48 49 50
796
ASUS43 KOAX 260402
RWRNE

WEATHER ROUNDUP FOR NEBRASKA
NATIONAL WEATHER SERVICE OMAHA NE
1100 PM CDT MON SEP 25 2017

NOTES: SATELLITE DATA IS BEING USED TO AUGMENT CLOUD COVER ABOVE
       12000 FEET.
       "FAIR" INDICATES FEW OR NO CLOUDS BELOW 12,000 FEET WITH NO
       SIGNIFICANT WEATHER AND/OR OBSTRUCTIONS TO VISIBILITY.


NEZ001>004-019>022-054>056-260500-
NEBRASKA PANHANDLE

CITY           SKY/WX    TMP DP  RH WIND       PRES   REMARKS
SCOTTSBLUFF    MOCLDY    47  42  83 E7        30.11F
ALLIANCE       CLEAR     37  36  96 CALM      30.13R
CHADRON        CLEAR     43  38  82 W5        30.12R
GORDON         FAIR      44  42  91 SE5       30.12S
KIMBALL        CLOUDY    42  40  93 CALM      30.15R
SIDNEY         CLOUDY    46  41  82 NE3       30.15R
$$

NEZ057>060-069>072-079>082-260500-
SOUTHWEST NEBRASKA

CITY           SKY/WX    TMP DP  RH WIND       PRES   REMARKS
NORTH PLATTE   CLOUDY    49  47  93 N5        30.11R
IMPERIAL       LGT RAIN  48  46  93 N9        30.14R
LEXINGTON      RAIN      50  48  93 N3        30.10R
MCCOOK         LGT RAIN  50  48  93 N8        30.10R
OGALLALA       CLOUDY    50  45  82 N9        30.14R
$$

NEZ005>010-023>029-035>040-094-260500-
NORTH CENTRAL NEBRASKA

CITY           SKY/WX    TMP DP  RH WIND       PRES   REMARKS
VALENTINE      CLOUDY    48  46  93 N7        30.11F
AINSWORTH      DRIZZLE   47  47 100 N9        30.10S
BROKEN BOW     RAIN      49  47  93 N7        30.08R
O`NEILL        RAIN      49  49 100 N8        30.07S
ORD            LGT RAIN  50  47  89 N7        30.06S
THEDFORD       CLOUDY    48  46  95 N7        30.13R
$$

NEZ041-046>049-061>064-073>077-083>087-260500-
SOUTH CENTRAL NEBRASKA

CITY           SKY/WX    TMP DP  RH WIND       PRES   REMARKS
GRAND ISLAND   LGT RAIN  51  51 100 N10       30.05R FOG
AURORA         LGT RAIN  51  51 100 N10       30.03R
HASTINGS       LGT RAIN  51  50  96 N13       30.05R
HEBRON         RAIN      56  56  97 N6        30.00R
HOLDREGE       CLOUDY    49  48  95 N9G16     30.08R FOG
KEARNEY        CLOUDY    50  48  93 N13       30.07R
YORK           CLOUDY    54  54 100 N3        30.02S FOG
$$

NEZ011>018-030>034-042>045-260500-
NORTHEAST NEBRASKA

CITY           SKY/WX    TMP DP  RH WIND       PRES   REMARKS
NORFOLK        CLOUDY    52  52 100 NW9       30.01R
ALBION         DRIZZLE   52  51  95 N6        30.03S
BLAIR          LGT RAIN  57  57  98 NW5       29.97R
COLUMBUS       LGT RAIN  54  52  93 NW7       30.02R
FREMONT        LGT RAIN  56  56  97 NW5       29.99S
TEKAMAH        LGT RAIN  57  56  96 NW8       29.96F
WAYNE          DRIZZLE   54  51  92 NW8       30.00S
$$

NEZ050>053-065>068-078-088>093-260500-
SOUTHEAST NEBRASKA

CITY           SKY/WX    TMP DP  RH WIND       PRES   REMARKS
LINCOLN        LGT RAIN  57  55  93 N10       30.00R
OMAHA EPPLEY   LGT RAIN  59  56  89 NW7       29.96R FOG
BEATRICE       LGT RAIN  60  60  99 N7        29.97S
FALLS CITY     LGT RAIN  66  66 100 CALM      29.96S
NEBRASKA CITY  LGT RAIN  64  64 100 NW3       29.97S
PLATTSMOUTH    RAIN      61  61 100 NW5       29.98R
$$

NEZ044-045-051>053-067-260500-
OMAHA AREA

CITY           SKY/WX    TMP DP  RH WIND       PRES   REMARKS
OMAHA EPPLEY   LGT RAIN  59  56  89 NW7       29.96R FOG
BLAIR          LGT RAIN  57  57  98 NW5       29.97R
FREMONT        LGT RAIN  56  56  97 NW5       29.99S
MILLARD        RAIN      60  58  94 NW5       29.97S
OFFUTT AFB     HVY RAIN  61  59  94 W6        29.97R FOG
PLATTSMOUTH    RAIN      61  61 100 NW5       29.98R
WAHOO          LGT RAIN  57  56  99 NW5       29.99R
$$




USA.gov is the U.S. government's official web portal to all federal, state and local government web resources and services.